Showing default

NORSAT 1, 42826

Orbit data source: Space-Track

NORSAT 1, 42826 is a payload satellite owned by Statsat (NO) in SSO that was launched on Fri, 14 Jul 2017 UTC via a SOYUZ-2-1A launch vehicle from the Tyuratam Missile And Space Complex (TTMTR). Payload-class satellites include a variety of spacecraft equipped with specific instruments for various scientific and technological missions. These include communications satellites like Starlink; space stations such as the ISS; scientific satellites like the Hubble; Earth observation satellites from companies like Planet Labs, Umbra, and HawkEye 360; GPS; miniature CubeSats for education and research; and military/defense satellites.

Loading next visibility...
Identifier
42826, 2017-042B
Orbit
SSO
Country
Flag of NONO / NOR
Related business
Manufacturer
UTIAS-SFL
Mission
Operational Commercial Communications
Bus & Motor
GNB, Unknown motor
Mass
30 kg wet, 30 kg dry
Launch date (UTC)
2017-07-14 (8 years ago)
Launch vehicle
SOYUZ-2-1A
Launch site
Tyuratam Missile And Space Complex (TTMTR)
Object type
Payload
Rocket body
Debris
Shape & HBR
Box + 2 Pan + 4 Ant, 1.0 m
Radar Cross Section
0.202 m², Medium (>0.1 m² and < 1m²)

Expand to show TLE details & history
Last TLE update: 11 hours ago

TLE from 11 hours ago
0 NORSAT 1
1 42826U 17042B   25289.09917617  .00011454  00000-0  71196-3 0  9994
2 42826  97.4256  98.2639 0007249 200.1456 159.9488 15.09783346450340
Epoch: 2025-10-16T02:22Z
TLE epoch observation values (Epoch: 2025-10-16T02:22:48.821Z)
Latitude
-0.00005°
Longitude
37.69672°
Altitude
544.648 km
Speed
7.587 km/s
True Right ascension
06h 33m 03s
True Declination
0° 00' 00"
Sunlit
Object was in daylight at epoch
Visualization orbit readout
Latitude
Unknown
Longitude
Unknown
Altitude
Unknown
Speed
Unknown
Apparent Right ascension
Unknown
Apparent Declination
Unknown
Sunlit
N/A
Visualization observer readout
Local Sidereal Time
07:54:28
Azimuth
Unknown
Elevation
Unknown
Doppler factor
Unknown
Orbital elements
Apogee altitude
538.852 km
Perigee altitude
528.831 km
Semi-major axis
6,911.979 km
Eccentricity
0.00072
Inclination
97.4256°
RAAN
98.2639°
Arg. of periapsis
200.1456°
True anomaly
159.97726°
Mean anomaly
159.9488°
Eccentric anomaly
159.96303°
Mean motion
3.77694 °/min
Orbital period
95.32 mins
BSTAR
0.00071196
Loading maneuver chart data...
Computing Atmospheric mass density...

Documentation

Showing up to 5 results
|